Voltar ao catálogo

STARLINK-31846

AtivoComunicaçõesVLEO
NORAD 60126·PAYLOAD·🇺🇸 United States

Lançado Jun 24, 2024 de Vandenberg Space Force Base

Loading…

Próximas Passagens (próximas 24 horas)

TLE

AtualizadoSource: CelesTrak SupGP

Época: Sep 15, 2026, 03:07 UTC

1 60126C 24118P   26258.13034722 -.00052809  00000+0 -16982-2 0  2587
2 60126  53.1589 225.5720 0001434  89.6339  57.9358 15.31727725    19

Acompanhe STARLINK-31846 em tempo real com AllMySat

Download on the App Store